Location: *
(43.0409°N, 0.1694°E)
Time: 12:58:22
(UTC+00:00)

BlueWalker 3 - Pass Details

Date: 03 October 2023
Orbit: 489 x 504 km, 53.2° (Epoch: 01 December)

Event Time Altitude Azimuth Distance (km) Brightness Sun altitude
Exits shadow 04:03:18 68° 338° (NNW) 543 1.9 -21.7°
Maximum altitude 04:03:41 78° 34° (NE) 517 1.9 -21.6°
Drops below altitude 10° 04:07:33 10° 122° (ESE) 1,709 5.2 -20.9°
Sets 04:09:45 0° 124° (SE) 2,594 6.2 -20.5°
